#timestamp,LO_Frequency,Hit,StdDev 
1607607515.8,286047051.9,P
1607607535.6,286047053.7,P
1607607555.4,286047054.0,P
1607607575.3,286047053.5,Y
1607607595.1,286047000.2,P
1607607615.8,286047002.3,N
1607607635.7,286047002.3,N
1607607655.5,286047001.6,N
1607607675.4,286047003.7,N
1607607695.2,286047003.3,N
1607607715.0,286047003.1,N
1607607715.9,286047003.1,N
1607607735.8,286047005.9,N
1607607755.6,286047004.9,N
1607607775.4,286047007.1,N
1607607795.3,286047007.0,N
1607607815.1,286047004.6,N
1607607835.9,286047006.5,N
1607607855.7,286047009.0,N
1607607875.5,286047009.1,N
1607607895.4,286047010.7,N
1607607915.2,286047013.5,N
1607607935.0,286047014.7,N
1607607935.9,286047014.7,N
1607607955.8,286047016.1,N
1607607975.6,286047017.3,N
1607607995.4,286047018.5,N
1607608015.3,286047017.9,N
1607608065.2,286047023.0,E
1607608075.1,286047013.5,N
1607608076.0,286047013.5,P
1607608095.8,286047002.4,P
1607608115.7,286047004.1,N
1607608135.5,286047004.1,N
1607608155.3,286047003.7,N
1607608175.2,286047003.1,N
1607608195.9,286047005.9,N
1607608215.7,286047003.4,N
1607608235.6,286047005.8,N
1607608255.4,286047004.9,N
1607608275.2,286047006.4,N
1607608295.1,286047006.7,N
1607608296.0,286047006.7,N
1607608315.8,286047010.7,Y
1607608335.7,286047001.3,P
1607608355.5,286047005.4,N
1607608375.3,286047006.0,N
1607608395.2,286047007.0,Y
1607608415.0,286047001.5,P
1607608415.9,286047001.5,N
1607608435.8,286047004.0,N
1607608455.6,286047001.3,N
1607608475.4,286047003.7,N
1607608495.3,286047003.5,N
1607608515.1,286047004.0,Y
1607608535.8,286047002.0,P
1607608555.7,286047006.0,P
1607608575.5,286047007.5,P
1607608595.4,286047007.2,Y
1607608615.2,286047005.9,P
1607608635.0,286047003.5,P
1607608635.9,286047003.5,P
1607608655.8,286047005.2,Y
1607608675.6,286047002.4,P
1607608695.5,286047003.8,P
1607608715.3,286047004.6,P
1607608735.1,286047005.1,Y
1607608755.9,286047001.9,P
1607608775.7,286047001.5,N
1607608795.5,286047004.3,P
